Rechercher aéroport 
image banner adimage banner adimage banner ad
image banner ad

CL70 - Queen Of Angel-Hollywood Presbyterian Hos

Situé à Los Angeles, United States

ICAO - CL70, IATA -

Données fournies par Airmate  

Information générale

Coordonnées: N34°5'47" W118°17'25"
Élévation : 524 feet MSL.
Variation magnétique : 14° East
Voir autres Aéroports à California

Données opérationnelles

Special qualification required
Heure actuelle UTC:
Heure actuelle locale:
Météo à : KBUR - Bob Hope ( 13 km )
METAR: KBUR 292353Z 17009KT 10SM CLR 32/09 A2984 RMK AO2 SLP090 T03170089 10333 20300 56012 $
TAF: KBUR 292348Z 3000/3024 17009KT P6SM SKC FM300200 13006KT P6SM SKC FM300800 VRB03KT P6SM SKC FM301700 16005KT P6SM SKC FM302100 18009KT P6SM SKC
Voir NOTAMs / SUP AIP / TFR affectant cet aéroport [VIEW]
Fréquences de communication: [VIEW]

Pistes:

Coordonnées de l'aéroport

Adresse: Los Angeles United States

Vue satellite de CL70